Historyczne dane pomiarowe

Dodano dane terminowe – wersja testowa.

Dane z okresu 1951-2019

Wersja bazy: 1.34 [2019-03-16, lista zmian], aktualizacja planowana na 2019-04-15

Dane meteo z obszaru Polski uzyskane na podstawie danych udostępnionych przez Instytut Meteorologii i Gospodarki Wodnej – Państwowy Instytut Badawczy.

 

Wybierz Datę:    

       

TemperaturaWilgotnośćZachmurzenieWiatrCiśnienieWidzialnośćZjawiska
 Data    tng td wb rh cc ccl cl cm ch dir g1 g2 mslp ppp      
1973-04-17 00:00:00 -4.4--- -5.3 -4.593wxwxwxwx24wx--- 835.7 0.0---wx
1973-04-17 01:00:00 -4.4------wxwxwxwx19wx--- 835.5----wx
1973-04-17 02:00:00 -4.2------wxwxwxwx18wx--- 835.1----wx
1973-04-17 03:00:00 -4.0--- -4.5 -4.096wxwxwx25wx--- 833.9----wx
1973-04-17 04:00:00 -3.8------wxwx22wx--- 833.9----wxw1
1973-04-17 05:00:00 -3.6------wxwx20wx--- 833.3----wxw1
1973-04-17 06:00:00 -3.4--- -3.8 -3.497wxwx17wx--- 833.4 0.0---wxw1
1973-04-17 07:00:00 -3.6------wxwx17wx--- 833.3----wxw1
1973-04-17 08:00:00 -3.8------wxwx17wx--- 832.8----wxw1
1973-04-17 09:00:00 -3.8--- -4.3 -3.896wxwx18wx--- 832.9----wxw1
1973-04-17 10:00:00 -3.9------wxwx17wx--- 832.5----wxw1
1973-04-17 11:00:00 -5.0------wxwx15wx--- 832.9----wxw1
1973-04-17 12:00:00 -5.1--- -5.7 -5.195wxwxwxwx15wx--- 832.8 0.6---wxw1
1973-04-17 13:00:00 -5.1------wxwxwx16wx--- 832.0----wxw1
1973-04-17 14:00:00 -4.8------wxwx17wx--- 831.9----wxw1
1973-04-17 15:00:00 -5.4--- -6.1 -5.495wxwxwx17wx--- 831.3----wxw1
1973-04-17 16:00:00 -5.6------wxwxwx18wx--- 830.7----wxw1
1973-04-17 17:00:00 -5.7------wxwxwx18wx--- 830.2----wxw1
1973-04-17 18:00:00 -6.4--- -7.2 -6.494wxwxwx17wx--- 830.0 0.8---wxw1
1973-04-17 19:00:00 -6.4------wxwx16wx--- 830.2----wxw1
1973-04-17 20:00:00 -6.3------wxwx16wx--- 829.8----wxw1
1973-04-17 21:00:00 -6.9--- -8.5 -7.188wxwx16wx--- 828.8----wxw1
1973-04-17 22:00:00 -7.0------wxwx14wx--- 829.1----wxw1
1973-04-17 23:00:00 -7.0------wxwx14wx--- 828.2----wxw1

 

Źródłem pochodzenia danych jest Instytut Meteorologii i Gospodarki Wodnej – Państwowy Instytut Badawczy. Dane Instytutu Meteorologii i Gospodarki Wodnej – Państwowego Instytutu Badawczego zostały przetworzone.

Dane źródłowe można odnaleźć na stronie https://dane.imgw.pl